,,PressureMeas_1m,,PRMeasQMR101_1,,RHStat155_1m_1,,SRMeasQMS101R_1m,,TAStat155_1m_1,,GenWind_1,,GenWind_1,
2018-10-24, 00:00:06,VALID,920.452,VALID,0.0,VALID,98.848,VALID,0.003,VALID,19.242,VALID,18.0,VALID,0.0,
2018-10-24, 00:01:06,VALID,920.423,VALID,0.0,VALID,98.864,VALID,-0.003,VALID,19.249,VALID,34.0,VALID,0.0,
2018-10-24, 00:02:06,VALID,920.417,VALID,0.0,VALID,98.844,VALID,0.005,VALID,19.224,VALID,38.0,VALID,0.0,
2018-10-24, 00:03:06,VALID,920.398,VALID,0.0,VALID,98.861,VALID,-0.007,VALID,19.205,VALID,52.0,VALID,0.0,
2018-10-24, 00:04:06,VALID,920.375,VALID,0.0,VALID,98.861,VALID,-0.006,VALID,19.189,VALID,61.0,VALID,0.0,
2018-10-24, 00:05:06,VALID,920.346,VALID,0.0,VALID,98.909,VALID,-0.018,VALID,19.184,VALID,53.0,VALID,0.0,
2018-10-24, 00:06:06,VALID,920.308,VALID,0.0,VALID,98.903,VALID,-0.007,VALID,19.163,VALID,57.0,VALID,0.0,
2018-10-24, 00:07:06,VALID,920.306,VALID,0.0,VALID,98.918,VALID,0.007,VALID,19.142,VALID,51.0,VALID,0.0,
2018-10-24, 00:08:06,VALID,920.294,VALID,0.0,VALID,98.938,VALID,0.017,VALID,19.139,VALID,39.0,VALID,0.0,
2018-10-24, 00:09:06,VALID,920.274,VALID,0.0,VALID,98.951,VALID,-0.042,VALID,19.132,VALID,36.0,VALID,0.0,
2018-10-24, 00:10:06,VALID,920.257,VALID,0.0,VALID,98.961,VALID,-0.036,VALID,19.118,VALID,36.0,VALID,0.0,
2018-10-24, 00:11:06,VALID,920.243,VALID,0.0,VALID,98.974,VALID,-0.047,VALID,19.113,VALID,36.0,VALID,0.0,
2018-10-24, 00:12:06,VALID,920.243,VALID,0.0,VALID,99.001,VALID,-0.07,VALID,19.119,VALID,36.0,VALID,0.0,
2018-10-24, 00:13:06,VALID,920.236,VALID,0.0,VALID,99.018,VALID,-0.047,VALID,19.125,VALID,33.0,VALID,0.0,
2018-10-24, 00:14:06,VALID,920.219,VALID,0.0,VALID,99.043,VALID,-0.051,VALID,19.132,VALID,33.0,VALID,0.0,
2018-10-24, 00:15:06,VALID,920.219,VALID,0.0,VALID,99.046,VALID,-0.054,VALID,19.136,VALID,33.0,VALID,0.0,
2018-10-24, 00:16:06,VALID,920.207,VALID,0.0,VALID,99.035,VALID,-0.054,VALID,19.133,VALID,33.0,VALID,0.0,
2018-10-24, 00:17:06,VALID,920.212,VALID,0.0,VALID,99.034,VALID,-0.049,VALID,19.12,VALID,34.0,VALID,0.0,
2018-10-24, 00:18:06,VALID,920.218,VALID,0.0,VALID,99.03,VALID,-0.036,VALID,19.102,VALID,34.0,VALID,0.0,
2018-10-24, 00:19:06,VALID,920.218,VALID,0.0,VALID,99.029,VALID,-0.053,VALID,19.087,VALID,34.0,VALID,0.0,
2018-10-24, 00:20:06,VALID,920.225,VALID,0.0,VALID,99.074,VALID,-0.064,VALID,19.103,VALID,40.0,VALID,0.0,
2018-10-24, 00:21:06,VALID,920.231,VALID,0.0,VALID,99.106,VALID,-0.057,VALID,19.143,VALID,45.0,VALID,0.0,
2018-10-24, 00:22:06,VALID,920.242,VALID,0.0,VALID,99.123,VALID,-0.055,VALID,19.184,VALID,47.0,VALID,0.0,
2018-10-24, 00:23:06,VALID,920.245,VALID,0.0,VALID,99.127,VALID,-0.042,VALID,19.196,VALID,58.0,VALID,0.0,
2018-10-24, 00:24:06,VALID,920.245,VALID,0.0,VALID,99.121,VALID,-0.005,VALID,19.197,VALID,59.0,VALID,0.0,
2018-10-24, 00:25:06,VALID,920.237,VALID,0.0,VALID,99.121,VALID,-0.029,VALID,19.186,VALID,59.0,VALID,0.0,
2018-10-24, 00:26:06,VALID,920.223,VALID,0.0,VALID,99.076,VALID,-0.007,VALID,19.151,VALID,65.0,VALID,0.0,
2018-10-24, 00:27:06,VALID,920.212,VALID,0.0,VALID,99.071,VALID,-0.024,VALID,19.122,VALID,73.0,VALID,0.0,
2018-10-24, 00:28:06,VALID,920.194,VALID,0.0,VALID,99.101,VALID,-0.021,VALID,19.125,VALID,93.0,VALID,0.0,
2018-10-24, 00:29:06,VALID,920.18,VALID,0.0,VALID,99.122,VALID,-0.0,VALID,19.104,VALID,104.0,VALID,0.0,
2018-10-24, 00:30:06,VALID,920.19,VALID,0.0,VALID,99.116,VALID,-0.02,VALID,19.104,VALID,106.0,VALID,0.0,
2018-10-24, 00:31:06,VALID,920.163,VALID,0.0,VALID,99.127,VALID,-0.011,VALID,19.113,VALID,107.0,VALID,0.0,
2018-10-24, 00:32:06,VALID,920.158,VALID,0.0,VALID,99.166,VALID,-0.014,VALID,19.127,VALID,107.0,VALID,0.0,
2018-10-24, 00:33:06,VALID,920.148,VALID,0.0,VALID,99.149,VALID,-0.017,VALID,19.145,VALID,112.0,VALID,0.0,
2018-10-24, 00:34:06,VALID,920.154,VALID,0.0,VALID,99.176,VALID,0.004,VALID,19.175,VALID,118.0,VALID,0.0,
2018-10-24, 00:35:06,VALID,920.149,VALID,0.0,VALID,99.134,VALID,-0.023,VALID,19.13,VALID,139.0,VALID,0.0,
2018-10-24, 00:36:06,VALID,920.12,VALID,0.0,VALID,99.116,VALID,-0.022,VALID,19.04,VALID,136.0,VALID,0.0,
2018-10-24, 00:37:06,VALID,920.115,VALID,0.0,VALID,99.109,VALID,-0.018,VALID,19.009,VALID,135.0,VALID,0.0,
2018-10-24, 00:38:06,VALID,920.113,VALID,0.0,VALID,99.114,VALID,-0.014,VALID,18.996,VALID,136.0,VALID,0.0,
2018-10-24, 00:39:06,VALID,920.082,VALID,0.0,VALID,99.138,VALID,-0.004,VALID,19.013,VALID,132.0,VALID,0.0,
2018-10-24, 00:40:06,VALID,920.063,VALID,0.0,VALID,99.159,VALID,0.018,VALID,19.019,VALID,115.0,VALID,0.0,
2018-10-24, 00:41:06,VALID,920.046,VALID,0.0,VALID,99.108,VALID,0.009,VALID,18.959,VALID,99.0,VALID,0.0,
2018-10-24, 00:42:06,VALID,920.025,VALID,0.0,VALID,99.153,VALID,0.008,VALID,18.971,VALID,102.0,VALID,0.0,
2018-10-24, 00:43:06,VALID,920.041,VALID,0.0,VALID,99.156,VALID,0.004,VALID,18.997,VALID,113.0,VALID,0.0,
2018-10-24, 00:44:06,VALID,919.997,VALID,0.0,VALID,99.192,VALID,0.009,VALID,19.091,VALID,115.0,VALID,0.0,
2018-10-24, 00:45:06,VALID,919.985,VALID,0.0,VALID,99.211,VALID,-0.002,VALID,19.108,VALID,114.0,VALID,0.0,
2018-10-24, 00:46:06,VALID,919.963,VALID,0.0,VALID,99.211,VALID,-0.017,VALID,19.123,VALID,129.0,VALID,0.0,
2018-10-24, 00:47:06,VALID,919.947,VALID,0.0,VALID,99.191,VALID,-0.013,VALID,19.113,VALID,140.0,VALID,0.0,
2018-10-24, 00:48:06,VALID,919.948,VALID,0.0,VALID,99.206,VALID,-0.014,VALID,19.108,VALID,135.0,VALID,0.0,
2018-10-24, 00:49:06,VALID,919.922,VALID,0.0,VALID,99.186,VALID,-0.009,VALID,19.108,VALID,136.0,VALID,0.0,
2018-10-24, 00:50:06,VALID,919.914,VALID,0.0,VALID,99.189,VALID,0.002,VALID,19.111,VALID,134.0,VALID,0.0,
2018-10-24, 00:51:06,VALID,919.888,VALID,0.0,VALID,99.213,VALID,-0.003,VALID,19.118,VALID,132.0,VALID,0.0,
2018-10-24, 00:52:06,VALID,919.881,VALID,0.0,VALID,99.202,VALID,0.016,VALID,19.105,VALID,127.0,VALID,0.0,
2018-10-24, 00:53:06,VALID,919.856,VALID,0.0,VALID,99.151,VALID,-0.006,VALID,19.053,VALID,127.0,VALID,0.0,
2018-10-24, 00:54:06,VALID,919.861,VALID,0.0,VALID,99.173,VALID,-0.0,VALID,19.043,VALID,127.0,VALID,0.0,
2018-10-24, 00:55:06,VALID,919.855,VALID,0.0,VALID,99.2,VALID,-0.006,VALID,19.069,VALID,143.0,VALID,0.0,
2018-10-24, 00:56:06,VALID,919.847,VALID,0.0,VALID,99.223,VALID,0.009,VALID,19.107,VALID,157.0,VALID,0.0,
2018-10-24, 00:57:06,VALID,919.839,VALID,0.0,VALID,99.228,VALID,0.01,VALID,19.147,VALID,159.0,VALID,0.0,
2018-10-24, 00:58:06,VALID,919.84,VALID,0.0,VALID,99.218,VALID,0.023,VALID,19.163,VALID,159.0,VALID,0.0,
2018-10-24, 00:59:06,VALID,919.826,VALID,0.0,VALID,99.212,VALID,0.007,VALID,19.175,VALID,159.0,VALID,0.0,
2018-10-24, 01:00:06,VALID,919.826,VALID,0.0,VALID,99.229,VALID,0.011,VALID,19.177,VALID,159.0,VALID,0.0,
2018-10-24, 01:01:06,VALID,919.829,VALID,0.0,VALID,99.214,VALID,-0.002,VALID,19.168,VALID,159.0,VALID,0.0,
2018-10-24, 01:02:06,VALID,919.819,VALID,0.0,VALID,99.217,VALID,-0.005,VALID,19.159,VALID,159.0,VALID,0.0,
2018-10-24, 01:03:06,VALID,919.827,VALID,0.0,VALID,99.203,VALID,0.004,VALID,19.15,VALID,159.0,VALID,0.0,
2018-10-24, 01:04:06,VALID,919.818,VALID,0.0,VALID,99.218,VALID,0.007,VALID,19.132,VALID,159.0,VALID,0.0,
2018-10-24, 01:05:06,VALID,919.815,VALID,0.0,VALID,99.195,VALID,0.012,VALID,19.109,VALID,159.0,VALID,0.0,
2018-10-24, 01:06:06,VALID,919.793,VALID,0.0,VALID,99.2,VALID,0.006,VALID,19.08,VALID,159.0,VALID,0.0,
2018-10-24, 01:07:06,VALID,919.773,VALID,0.0,VALID,99.196,VALID,-0.007,VALID,19.072,VALID,159.0,VALID,0.0,
2018-10-24, 01:08:06,VALID,919.767,VALID,0.0,VALID,99.2,VALID,-0.023,VALID,19.065,VALID,159.0,VALID,0.0,
2018-10-24, 01:09:06,VALID,919.748,VALID,0.0,VALID,99.206,VALID,-0.026,VALID,19.061,VALID,159.0,VALID,0.0,
2018-10-24, 01:10:06,VALID,919.723,VALID,0.0,VALID,99.202,VALID,-0.035,VALID,19.039,VALID,159.0,VALID,0.0,
2018-10-24, 01:11:06,VALID,919.702,VALID,0.0,VALID,99.169,VALID,-0.036,VALID,18.989,VALID,159.0,VALID,0.0,
2018-10-24, 01:12:06,VALID,919.701,VALID,0.0,VALID,99.197,VALID,-0.012,VALID,18.977,VALID,159.0,VALID,0.0,
2018-10-24, 01:13:06,VALID,919.678,VALID,0.0,VALID,99.238,VALID,-0.012,VALID,19.01,VALID,159.0,VALID,0.0,
2018-10-24, 01:14:06,VALID,919.654,VALID,0.0,VALID,99.234,VALID,-0.016,VALID,19.033,VALID,159.0,VALID,0.0,
2018-10-24, 01:15:06,VALID,919.643,VALID,0.0,VALID,99.233,VALID,-0.031,VALID,19.029,VALID,159.0,VALID,0.0,
2018-10-24, 01:16:06,VALID,919.644,VALID,0.0,VALID,99.231,VALID,-0.025,VALID,19.024,VALID,159.0,VALID,0.0,
2018-10-24, 01:17:06,VALID,919.627,VALID,0.0,VALID,99.212,VALID,-0.006,VALID,19.015,VALID,153.0,VALID,0.0,
2018-10-24, 01:18:06,VALID,919.605,VALID,0.0,VALID,99.211,VALID,-0.01,VALID,19.003,VALID,116.0,VALID,0.0,
2018-10-24, 01:19:06,VALID,919.601,VALID,0.0,VALID,99.238,VALID,-0.031,VALID,18.995,VALID,104.0,VALID,0.0,
2018-10-24, 01:20:06,VALID,919.601,VALID,0.0,VALID,99.198,VALID,-0.03,VALID,18.956,VALID,92.0,VALID,0.0,
2018-10-24, 01:21:06,VALID,919.596,VALID,0.0,VALID,99.19,VALID,-0.029,VALID,18.937,VALID,82.0,VALID,0.0,
2018-10-24, 01:22:06,VALID,919.575,VALID,0.0,VALID,99.179,VALID,-0.017,VALID,18.87,VALID,79.0,VALID,0.0,
2018-10-24, 01:23:06,VALID,919.573,VALID,0.0,VALID,99.212,VALID,-0.013,VALID,18.894,VALID,67.0,VALID,0.0,
2018-10-24, 01:24:06,VALID,919.55,VALID,0.0,VALID,99.276,VALID,-0.035,VALID,18.995,VALID,64.0,VALID,0.0,
2018-10-24, 01:25:06,VALID,919.521,VALID,0.0,VALID,99.261,VALID,-0.04,VALID,18.993,VALID,53.0,VALID,0.0,
2018-10-24, 01:26:06,VALID,919.512,VALID,0.0,VALID,99.17,VALID,-0.019,VALID,18.877,VALID,53.0,VALID,0.0,
2018-10-24, 01:27:06,VALID,919.504,VALID,0.0,VALID,99.141,VALID,-0.029,VALID,18.799,VALID,53.0,VALID,0.0,
2018-10-24, 01:28:06,VALID,919.47,VALID,0.0,VALID,99.161,VALID,-0.026,VALID,18.774,VALID,59.0,VALID,0.0,
2018-10-24, 01:29:06,VALID,919.475,VALID,0.0,VALID,99.178,VALID,-0.028,VALID,18.78,VALID,77.0,VALID,0.0,
2018-10-24, 01:30:06,VALID,919.432,VALID,0.0,VALID,99.194,VALID,-0.031,VALID,18.803,VALID,97.0,VALID,0.0,
2018-10-24, 01:31:06,VALID,919.446,VALID,0.0,VALID,99.204,VALID,-0.007,VALID,18.809,VALID,101.0,VALID,0.0,
2018-10-24, 01:32:06,VALID,919.437,VALID,0.0,VALID,99.197,VALID,-0.035,VALID,18.816,VALID,111.0,VALID,0.0,
2018-10-24, 01:33:06,VALID,919.436,VALID,0.0,VALID,99.181,VALID,-0.033,VALID,18.8,VALID,109.0,VALID,0.0,
2018-10-24, 01:34:06,VALID,919.405,VALID,0.0,VALID,99.193,VALID,-0.04,VALID,18.809,VALID,100.0,VALID,0.0,
2018-10-24, 01:35:06,VALID,919.417,VALID,0.0,VALID,99.178,VALID,-0.023,VALID,18.773,VALID,103.0,VALID,0.0,
2018-10-24, 01:36:06,VALID,919.403,VALID,0.0,VALID,99.188,VALID,-0.032,VALID,18.757,VALID,111.0,VALID,0.0,
2018-10-24, 01:37:06,VALID,919.411,VALID,0.0,VALID,99.171,VALID,-0.032,VALID,18.742,INVALID,360.0,VALID,0.0,
2018-10-24, 01:38:06,VALID,919.408,VALID,0.0,VALID,99.172,VALID,-0.039,VALID,18.722,VALID,111.0,VALID,0.0,
2018-10-24, 01:39:06,VALID,919.393,VALID,0.0,VALID,99.196,VALID,-0.016,VALID,18.726,VALID,111.0,VALID,0.0,
2018-10-24, 01:40:06,VALID,919.361,VALID,0.0,VALID,99.182,VALID,0.008,VALID,18.716,VALID,111.0,VALID,0.0,
2018-10-24, 01:41:06,VALID,919.358,VALID,0.0,VALID,99.183,VALID,0.016,VALID,18.717,VALID,111.0,VALID,0.0,
2018-10-24, 01:42:06,VALID,919.347,VALID,0.0,VALID,99.226,VALID,-0.001,VALID,18.78,VALID,111.0,VALID,0.0,
2018-10-24, 01:43:06,VALID,919.346,VALID,0.0,VALID,99.22,VALID,-0.01,VALID,18.84,VALID,111.0,VALID,0.0,
2018-10-24, 01:44:06,VALID,919.327,VALID,0.0,VALID,99.241,VALID,-0.01,VALID,18.885,VALID,111.0,VALID,0.0,
2018-10-24, 01:45:06,VALID,919.33,VALID,0.0,VALID,99.243,VALID,-0.003,VALID,18.93,INVALID,360.0,VALID,0.0,
2018-10-24, 01:46:06,VALID,919.314,VALID,0.0,VALID,99.238,VALID,0.002,VALID,18.958,INVALID,360.0,VALID,0.0,
2018-10-24, 01:47:06,VALID,919.3,VALID,0.0,VALID,99.245,VALID,-0.003,VALID,18.968,VALID,255.0,VALID,0.0,
2018-10-24, 01:48:06,VALID,919.307,VALID,0.0,VALID,99.242,VALID,-0.0,VALID,18.988,VALID,260.0,VALID,0.0,
2018-10-24, 01:49:06,VALID,919.307,VALID,0.0,VALID,99.233,VALID,-0.002,VALID,18.986,VALID,261.0,VALID,0.0,
2018-10-24, 01:50:06,VALID,919.294,VALID,0.0,VALID,99.243,VALID,0.002,VALID,18.991,VALID,261.0,VALID,0.0,
2018-10-24, 01:51:06,VALID,919.269,VALID,0.0,VALID,99.244,VALID,-0.004,VALID,18.994,VALID,261.0,VALID,0.0,
2018-10-24, 01:52:06,VALID,919.277,VALID,0.0,VALID,99.233,VALID,-0.011,VALID,18.989,VALID,261.0,VALID,0.0,
2018-10-24, 01:53:06,VALID,919.263,VALID,0.0,VALID,99.205,VALID,-0.003,VALID,18.964,VALID,261.0,VALID,0.0,
2018-10-24, 01:54:06,VALID,919.244,VALID,0.0,VALID,99.217,VALID,0.006,VALID,18.947,VALID,261.0,VALID,0.0,
2018-10-24, 01:55:06,VALID,919.229,VALID,0.0,VALID,99.236,VALID,0.003,VALID,18.947,VALID,261.0,VALID,0.0,
2018-10-24, 01:56:06,VALID,919.217,VALID,0.0,VALID,99.237,VALID,0.003,VALID,18.967,VALID,260.0,VALID,0.0,
2018-10-24, 01:57:06,VALID,919.193,VALID,0.0,VALID,99.238,VALID,0.019,VALID,18.976,VALID,260.0,VALID,0.0,
2018-10-24, 01:58:06,VALID,919.174,VALID,0.0,VALID,99.242,VALID,-0.011,VALID,18.982,VALID,260.0,VALID,0.0,
2018-10-24, 01:59:06,VALID,919.165,VALID,0.0,VALID,99.233,VALID,0.003,VALID,18.984,VALID,260.0,VALID,0.0,
2018-10-24, 02:00:06,VALID,919.164,VALID,0.0,VALID,99.233,VALID,0.003,VALID,18.972,VALID,260.0,VALID,0.0,
2018-10-24, 02:01:06,VALID,919.167,VALID,0.0,VALID,99.23,VALID,0.003,VALID,18.962,VALID,260.0,VALID,0.0,
2018-10-24, 02:02:06,VALID,919.17,VALID,0.0,VALID,99.254,VALID,-0.002,VALID,18.974,VALID,254.0,VALID,0.0,
2018-10-24, 02:03:06,VALID,919.151,VALID,0.0,VALID,99.229,VALID,0.009,VALID,18.968,VALID,254.0,VALID,0.0,
2018-10-24, 02:04:06,VALID,919.142,VALID,0.0,VALID,99.234,VALID,0.003,VALID,18.943,VALID,254.0,VALID,0.0,
2018-10-24, 02:05:06,VALID,919.141,VALID,0.0,VALID,99.222,VALID,0.006,VALID,18.92,INVALID,360.0,VALID,0.0,
2018-10-24, 02:06:06,VALID,919.102,VALID,0.0,VALID,99.217,VALID,0.005,VALID,18.9,INVALID,360.0,VALID,0.0,
2018-10-24, 02:07:06,VALID,919.072,VALID,0.0,VALID,99.21,VALID,0.012,VALID,18.867,INVALID,360.0,VALID,0.0,
2018-10-24, 02:08:06,VALID,919.044,VALID,0.0,VALID,99.226,VALID,0.009,VALID,18.857,INVALID,360.0,VALID,0.0,
2018-10-24, 02:09:06,VALID,919.028,VALID,0.0,VALID,99.226,VALID,-0.03,VALID,18.845,INVALID,360.0,VALID,0.0,
2018-10-24, 02:10:06,VALID,919.004,VALID,0.0,VALID,99.23,VALID,-0.042,VALID,18.82,INVALID,360.0,VALID,0.0,
2018-10-24, 02:11:06,VALID,918.993,VALID,0.0,VALID,99.176,VALID,-0.035,VALID,18.715,VALID,101.0,VALID,0.0,
2018-10-24, 02:12:06,VALID,918.976,VALID,0.0,VALID,99.11,VALID,-0.037,VALID,18.596,VALID,94.0,VALID,0.0,
2018-10-24, 02:13:06,VALID,918.966,VALID,0.0,VALID,99.167,VALID,-0.04,VALID,18.576,VALID,94.0,VALID,0.0,
2018-10-24, 02:14:06,VALID,918.964,VALID,0.0,VALID,99.193,VALID,-0.028,VALID,18.57,VALID,94.0,VALID,0.0,
2018-10-24, 02:15:06,VALID,918.935,VALID,0.0,VALID,99.193,VALID,-0.024,VALID,18.548,VALID,94.0,VALID,0.0,
2018-10-24, 02:16:06,VALID,918.915,VALID,0.0,VALID,99.22,VALID,-0.022,VALID,18.534,VALID,94.0,VALID,0.0,
2018-10-24, 02:17:06,VALID,918.916,VALID,0.0,VALID,99.2,VALID,-0.022,VALID,18.52,VALID,94.0,VALID,0.0,
2018-10-24, 02:18:06,VALID,918.891,VALID,0.0,VALID,99.209,VALID,-0.038,VALID,18.497,VALID,94.0,VALID,0.0,
2018-10-24, 02:19:06,VALID,918.892,VALID,0.0,VALID,99.198,VALID,-0.036,VALID,18.465,VALID,93.0,VALID,0.0,
2018-10-24, 02:20:06,VALID,918.888,VALID,0.0,VALID,99.214,VALID,-0.037,VALID,18.445,VALID,93.0,VALID,0.0,
2018-10-24, 02:21:06,VALID,918.857,VALID,0.0,VALID,99.209,VALID,-0.051,VALID,18.437,VALID,93.0,VALID,0.0,
2018-10-24, 02:22:06,VALID,918.841,VALID,0.0,VALID,99.223,VALID,-0.031,VALID,18.393,VALID,106.0,VALID,0.0,
2018-10-24, 02:23:06,VALID,918.821,VALID,0.0,VALID,99.217,VALID,-0.017,VALID,18.405,VALID,104.0,VALID,0.0,
2018-10-24, 02:24:06,VALID,918.815,VALID,0.0,VALID,99.233,VALID,-0.048,VALID,18.391,VALID,109.0,VALID,0.0,
2018-10-24, 02:25:06,VALID,918.791,VALID,0.0,VALID,99.208,VALID,-0.065,VALID,18.34,VALID,122.0,VALID,0.0,
2018-10-24, 02:26:06,VALID,918.78,VALID,0.0,VALID,99.201,VALID,-0.054,VALID,18.297,VALID,147.0,VALID,0.0,
2018-10-24, 02:27:06,VALID,918.759,VALID,0.0,VALID,99.218,VALID,-0.062,VALID,18.283,VALID,150.0,VALID,0.0,
2018-10-24, 02:28:06,VALID,918.727,VALID,0.0,VALID,99.21,VALID,-0.07,VALID,18.26,VALID,141.0,VALID,0.0,
2018-10-24, 02:29:06,VALID,918.713,VALID,0.0,VALID,99.235,VALID,-0.046,VALID,18.284,VALID,123.0,VALID,0.0,
2018-10-24, 02:30:06,VALID,918.698,VALID,0.0,VALID,99.261,VALID,-0.043,VALID,18.358,VALID,113.0,VALID,0.0,
2018-10-24, 02:31:06,VALID,918.695,VALID,0.0,VALID,99.281,VALID,-0.066,VALID,18.397,VALID,118.0,VALID,0.0,
2018-10-24, 02:32:06,VALID,918.665,VALID,0.0,VALID,99.255,VALID,-0.079,VALID,18.404,VALID,114.0,VALID,0.0,
2018-10-24, 02:33:06,VALID,918.667,VALID,0.0,VALID,99.255,VALID,-0.075,VALID,18.401,VALID,116.0,VALID,0.0,
2018-10-24, 02:34:06,VALID,918.666,VALID,0.0,VALID,99.235,VALID,-0.057,VALID,18.369,VALID,115.0,VALID,0.0,
2018-10-24, 02:35:06,VALID,918.668,VALID,0.0,VALID,99.254,VALID,-0.049,VALID,18.36,VALID,112.0,VALID,0.0,
2018-10-24, 02:36:06,VALID,918.664,VALID,0.0,VALID,99.257,VALID,-0.058,VALID,18.362,VALID,109.0,VALID,0.0,
2018-10-24, 02:37:06,VALID,918.684,VALID,0.0,VALID,99.27,VALID,-0.052,VALID,18.399,VALID,106.0,VALID,0.0,
2018-10-24, 02:38:06,VALID,918.678,VALID,0.0,VALID,99.284,VALID,-0.048,VALID,18.428,VALID,106.0,VALID,0.0,
2018-10-24, 02:39:06,VALID,918.649,VALID,0.0,VALID,99.278,VALID,-0.046,VALID,18.422,VALID,107.0,VALID,0.0,
2018-10-24, 02:40:06,VALID,918.675,VALID,0.0,VALID,99.291,VALID,-0.046,VALID,18.457,VALID,101.0,VALID,0.0,
2018-10-24, 02:41:06,VALID,918.659,VALID,0.0,VALID,99.271,VALID,-0.069,VALID,18.465,VALID,100.0,VALID,0.0,
2018-10-24, 02:42:06,VALID,918.653,VALID,0.0,VALID,99.283,VALID,-0.063,VALID,18.462,VALID,100.0,VALID,0.0,
2018-10-24, 02:43:06,VALID,918.658,VALID,0.0,VALID,99.258,VALID,-0.058,VALID,18.457,VALID,99.0,VALID,0.0,
2018-10-24, 02:44:06,VALID,918.636,VALID,0.0,VALID,99.29,VALID,-0.029,VALID,18.434,VALID,99.0,VALID,0.0,
2018-10-24, 02:45:06,VALID,918.632,VALID,0.0,VALID,99.23,VALID,-0.046,VALID,18.379,VALID,92.0,VALID,0.0,
2018-10-24, 02:46:06,VALID,918.638,VALID,0.0,VALID,99.224,VALID,-0.055,VALID,18.328,VALID,89.0,VALID,0.0,
2018-10-24, 02:47:06,VALID,918.629,VALID,0.0,VALID,99.24,VALID,-0.041,VALID,18.299,VALID,86.0,VALID,0.0,
2018-10-24, 02:48:06,VALID,918.605,VALID,0.0,VALID,99.26,VALID,-0.036,VALID,18.336,VALID,86.0,VALID,0.0,
2018-10-24, 02:49:06,VALID,918.597,VALID,0.0,VALID,99.281,VALID,-0.053,VALID,18.358,VALID,86.0,VALID,0.0,
2018-10-24, 02:50:06,VALID,918.574,VALID,0.0,VALID,99.29,VALID,-0.039,VALID,18.37,VALID,86.0,VALID,0.0,
2018-10-24, 02:51:06,VALID,918.578,VALID,0.0,VALID,99.265,VALID,-0.063,VALID,18.368,VALID,86.0,VALID,0.0,
2018-10-24, 02:52:06,VALID,918.557,VALID,0.0,VALID,99.288,VALID,-0.049,VALID,18.355,VALID,88.0,VALID,0.0,
2018-10-24, 02:53:06,VALID,918.549,VALID,0.0,VALID,99.255,VALID,-0.024,VALID,18.335,VALID,88.0,VALID,0.0,
2018-10-24, 02:54:06,VALID,918.517,VALID,0.0,VALID,99.277,VALID,-0.004,VALID,18.323,VALID,88.0,VALID,0.0,
2018-10-24, 02:55:06,VALID,918.477,VALID,0.0,VALID,99.272,VALID,0.001,VALID,18.302,VALID,88.0,VALID,0.0,
2018-10-24, 02:56:06,VALID,918.477,VALID,0.0,VALID,99.284,VALID,0.008,VALID,18.319,VALID,88.0,VALID,0.0,
2018-10-24, 02:57:06,VALID,918.455,VALID,0.0,VALID,99.302,VALID,-0.0,VALID,18.328,VALID,88.0,VALID,0.0,
2018-10-24, 02:58:06,VALID,918.435,VALID,0.0,VALID,99.272,VALID,0.009,VALID,18.298,VALID,73.0,VALID,0.0,
2018-10-24, 02:59:06,VALID,918.407,VALID,0.0,VALID,99.25,VALID,-0.003,VALID,18.23,VALID,39.0,VALID,0.0,
2018-10-24, 03:00:06,VALID,918.395,VALID,0.0,VALID,99.257,VALID,0.024,VALID,18.18,VALID,32.0,VALID,0.0,
2018-10-24, 03:01:06,VALID,918.383,VALID,0.0,VALID,99.252,VALID,0.013,VALID,18.148,VALID,37.0,VALID,0.0,
2018-10-24, 03:02:06,VALID,918.362,VALID,0.0,VALID,99.278,VALID,0.021,VALID,18.154,VALID,46.0,VALID,0.0,
2018-10-24, 03:03:06,VALID,918.342,VALID,0.0,VALID,99.278,VALID,0.003,VALID,18.154,VALID,69.0,VALID,0.0,
2018-10-24, 03:04:06,VALID,918.337,VALID,0.0,VALID,99.302,VALID,0.017,VALID,18.178,VALID,83.0,VALID,0.0,
2018-10-24, 03:05:06,VALID,918.312,VALID,0.0,VALID,99.317,VALID,0.023,VALID,18.202,VALID,83.0,VALID,0.0,
2018-10-24, 03:06:06,VALID,918.292,VALID,0.0,VALID,99.325,VALID,0.023,VALID,18.226,VALID,83.0,VALID,0.0,
2018-10-24, 03:07:06,VALID,918.296,VALID,0.0,VALID,99.337,VALID,0.028,VALID,18.271,VALID,83.0,VALID,0.0,
2018-10-24, 03:08:06,VALID,918.274,VALID,0.0,VALID,99.323,VALID,0.017,VALID,18.295,VALID,91.0,VALID,0.0,
2018-10-24, 03:09:06,VALID,918.267,VALID,0.0,VALID,99.309,VALID,-0.038,VALID,18.276,VALID,98.0,VALID,0.0,
2018-10-24, 03:10:06,VALID,918.265,VALID,0.0,VALID,99.293,VALID,-0.023,VALID,18.237,VALID,103.0,VALID,0.0,
2018-10-24, 03:11:06,VALID,918.272,VALID,0.0,VALID,99.308,VALID,-0.019,VALID,18.262,VALID,110.0,VALID,0.0,
2018-10-24, 03:12:06,VALID,918.246,VALID,0.0,VALID,99.337,VALID,-0.022,VALID,18.291,VALID,108.0,VALID,0.0,
2018-10-24, 03:13:06,VALID,918.249,VALID,0.0,VALID,99.315,VALID,-0.039,VALID,18.295,VALID,103.0,VALID,0.0,
2018-10-24, 03:14:06,VALID,918.223,VALID,0.0,VALID,99.327,VALID,-0.042,VALID,18.287,VALID,104.0,VALID,0.0,
2018-10-24, 03:15:06,VALID,918.22,VALID,0.0,VALID,99.318,VALID,-0.038,VALID,18.302,VALID,99.0,VALID,0.0,
2018-10-24, 03:16:06,VALID,918.198,VALID,0.0,VALID,99.337,VALID,-0.035,VALID,18.331,VALID,88.0,VALID,0.0,
2018-10-24, 03:17:06,VALID,918.186,VALID,0.0,VALID,99.321,VALID,-0.046,VALID,18.287,VALID,84.0,VALID,0.0,
2018-10-24, 03:18:06,VALID,918.19,VALID,0.0,VALID,99.306,VALID,-0.022,VALID,18.267,VALID,84.0,VALID,0.0,
2018-10-24, 03:19:06,VALID,918.191,VALID,0.0,VALID,99.313,VALID,-0.03,VALID,18.259,VALID,84.0,VALID,0.0,
2018-10-24, 03:20:06,VALID,918.201,VALID,0.0,VALID,99.319,VALID,-0.018,VALID,18.287,VALID,86.0,VALID,0.0,
2018-10-24, 03:21:06,VALID,918.183,VALID,0.0,VALID,99.349,VALID,-0.026,VALID,18.321,VALID,89.0,VALID,0.0,
2018-10-24, 03:22:06,VALID,918.192,VALID,0.0,VALID,99.351,VALID,-0.038,VALID,18.341,VALID,89.0,VALID,0.0,
2018-10-24, 03:23:06,VALID,918.174,VALID,0.0,VALID,99.334,VALID,-0.022,VALID,18.337,VALID,85.0,VALID,0.0,
2018-10-24, 03:24:06,VALID,918.191,VALID,0.0,VALID,99.322,VALID,-0.004,VALID,18.301,VALID,72.0,VALID,0.0,
2018-10-24, 03:25:06,VALID,918.188,VALID,0.0,VALID,99.303,VALID,-0.027,VALID,18.286,VALID,61.0,VALID,0.0,
2018-10-24, 03:26:06,VALID,918.163,VALID,0.0,VALID,99.338,VALID,-0.033,VALID,18.306,VALID,57.0,VALID,0.0,
2018-10-24, 03:27:06,VALID,918.166,VALID,0.0,VALID,99.353,VALID,-0.046,VALID,18.353,VALID,55.0,VALID,0.0,
2018-10-24, 03:28:06,VALID,918.147,VALID,0.0,VALID,99.354,VALID,-0.044,VALID,18.366,VALID,55.0,VALID,0.0,
2018-10-24, 03:29:06,VALID,918.117,VALID,0.0,VALID,99.342,VALID,-0.032,VALID,18.36,VALID,55.0,VALID,0.0,
2018-10-24, 03:30:06,VALID,918.115,VALID,0.0,VALID,99.356,VALID,-0.031,VALID,18.396,VALID,55.0,VALID,0.0,
2018-10-24, 03:31:06,VALID,918.112,VALID,0.0,VALID,99.36,VALID,-0.033,VALID,18.416,VALID,55.0,VALID,0.0,
2018-10-24, 03:32:06,VALID,918.106,VALID,0.0,VALID,99.338,VALID,-0.037,VALID,18.38,VALID,57.0,VALID,0.0,
2018-10-24, 03:33:06,VALID,918.093,VALID,0.0,VALID,99.314,VALID,-0.041,VALID,18.307,VALID,81.0,VALID,0.0,
2018-10-24, 03:34:06,VALID,918.08,VALID,0.0,VALID,99.321,VALID,-0.034,VALID,18.265,VALID,93.0,VALID,0.0,
2018-10-24, 03:35:06,VALID,918.082,VALID,0.0,VALID,99.322,VALID,-0.043,VALID,18.261,VALID,105.0,VALID,0.0,
2018-10-24, 03:36:06,VALID,918.075,VALID,0.0,VALID,99.327,VALID,-0.041,VALID,18.289,VALID,105.0,VALID,0.0,
2018-10-24, 03:37:06,VALID,918.059,VALID,0.0,VALID,99.342,VALID,-0.03,VALID,18.317,VALID,105.0,VALID,0.0,
2018-10-24, 03:38:06,VALID,918.056,VALID,0.0,VALID,99.324,VALID,-0.033,VALID,18.291,VALID,105.0,VALID,0.0,
2018-10-24, 03:39:06,VALID,918.052,VALID,0.0,VALID,99.338,VALID,-0.038,VALID,18.288,VALID,105.0,VALID,0.0,
2018-10-24, 03:40:06,VALID,918.03,VALID,0.0,VALID,99.372,VALID,-0.038,VALID,18.313,VALID,105.0,VALID,0.0,
2018-10-24, 03:41:06,VALID,918.032,VALID,0.0,VALID,99.32,VALID,-0.035,VALID,18.287,VALID,105.0,VALID,0.0,
2018-10-24, 03:42:06,VALID,918.011,VALID,0.0,VALID,99.31,VALID,-0.013,VALID,18.23,VALID,105.0,VALID,0.0,